Year,Month,Day,Hour,Minute,Value (Times are PST for temperature in C)
2015,06,28,00,00,22.90
2015,06,28,00,01,22.80
2015,06,28,00,02,22.80
2015,06,28,00,03,22.80
2015,06,28,00,04,22.80
2015,06,28,00,05,22.70
2015,06,28,00,06,22.70
2015,06,28,00,07,22.70
2015,06,28,00,08,22.60
2015,06,28,00,09,22.60
2015,06,28,00,10,22.50
2015,06,28,00,11,22.50
2015,06,28,00,12,22.40
2015,06,28,00,13,22.40
2015,06,28,00,14,22.40
2015,06,28,00,15,22.30
2015,06,28,00,16,22.30
2015,06,28,00,17,22.30
2015,06,28,00,18,22.20
2015,06,28,00,19,22.20
2015,06,28,00,20,22.20
2015,06,28,00,21,22.20
2015,06,28,00,22,22.10
2015,06,28,00,23,22.10
2015,06,28,00,24,22.10
2015,06,28,00,25,22.10
2015,06,28,00,26,22.10
2015,06,28,00,27,22.10
2015,06,28,00,28,22.10
2015,06,28,00,29,22.10
2015,06,28,00,30,22.10
2015,06,28,00,31,22.00
2015,06,28,00,32,22.00
2015,06,28,00,33,22.00
2015,06,28,00,34,21.90
2015,06,28,00,35,21.90
2015,06,28,00,36,21.80
2015,06,28,00,37,21.80
2015,06,28,00,38,21.80
2015,06,28,00,39,21.70
2015,06,28,00,40,21.70
2015,06,28,00,41,21.70
2015,06,28,00,42,21.60
2015,06,28,00,43,21.60
2015,06,28,00,44,21.50
2015,06,28,00,45,21.50
2015,06,28,00,46,21.50
2015,06,28,00,47,21.40
2015,06,28,00,48,21.40
2015,06,28,00,49,21.40
2015,06,28,00,50,21.30
2015,06,28,00,51,21.30
2015,06,28,00,52,21.20
2015,06,28,00,53,21.20
2015,06,28,00,54,21.20
2015,06,28,00,55,21.10
2015,06,28,00,56,21.10
2015,06,28,00,57,21.00
2015,06,28,00,58,21.00
2015,06,28,00,59,21.00
2015,06,28,01,00,20.90
2015,06,28,01,01,20.90
2015,06,28,01,02,20.90
2015,06,28,01,03,20.80
2015,06,28,01,04,20.80
2015,06,28,01,05,20.80
2015,06,28,01,06,20.80
2015,06,28,01,07,20.70
2015,06,28,01,08,20.70
2015,06,28,01,09,20.70
2015,06,28,01,10,20.60
2015,06,28,01,11,20.60
2015,06,28,01,12,20.60
2015,06,28,01,13,20.50
2015,06,28,01,14,20.50
2015,06,28,01,15,20.40
2015,06,28,01,16,20.40
2015,06,28,01,17,20.30
2015,06,28,01,18,20.30
2015,06,28,01,19,20.30
2015,06,28,01,20,20.30
2015,06,28,01,21,20.30
2015,06,28,01,22,20.40
2015,06,28,01,23,20.40
2015,06,28,01,24,20.40
2015,06,28,01,25,20.40
2015,06,28,01,26,20.40
2015,06,28,01,27,20.40
2015,06,28,01,28,20.40
2015,06,28,01,29,20.30
2015,06,28,01,30,20.30
2015,06,28,01,31,20.30
2015,06,28,01,32,20.30
2015,06,28,01,33,20.30
2015,06,28,01,34,20.30
2015,06,28,01,35,20.30
2015,06,28,01,36,20.30
2015,06,28,01,37,20.20
2015,06,28,01,38,20.20
2015,06,28,01,39,20.20
2015,06,28,01,40,20.20
2015,06,28,01,41,20.10
2015,06,28,01,42,20.10
2015,06,28,01,43,20.10
2015,06,28,01,44,20.00
2015,06,28,01,45,20.00
2015,06,28,01,46,20.00
2015,06,28,01,47,19.90
2015,06,28,01,48,19.90
2015,06,28,01,49,19.90
2015,06,28,01,50,19.90
2015,06,28,01,51,19.90
2015,06,28,01,52,19.80
2015,06,28,01,53,19.80
2015,06,28,01,54,19.80
2015,06,28,01,55,19.80
2015,06,28,01,56,19.70
2015,06,28,01,57,19.70
2015,06,28,01,58,19.70
2015,06,28,01,59,19.60
2015,06,28,02,00,19.60
2015,06,28,02,01,19.50
2015,06,28,02,02,19.50
2015,06,28,02,03,19.50
2015,06,28,02,04,19.40
2015,06,28,02,05,19.40
2015,06,28,02,06,19.40
2015,06,28,02,07,19.30
2015,06,28,02,08,19.30
2015,06,28,02,09,19.30
2015,06,28,02,10,19.30
2015,06,28,02,11,19.20
2015,06,28,02,12,19.20
2015,06,28,02,13,19.20
2015,06,28,02,14,19.20
2015,06,28,02,15,19.20
2015,06,28,02,16,19.10
2015,06,28,02,17,19.10
2015,06,28,02,18,19.10
2015,06,28,02,19,19.10
2015,06,28,02,20,19.10
2015,06,28,02,21,19.00
2015,06,28,02,22,19.00
2015,06,28,02,23,19.00
2015,06,28,02,24,19.00
2015,06,28,02,25,18.90
2015,06,28,02,26,18.90
2015,06,28,02,27,18.90
2015,06,28,02,28,18.90
2015,06,28,02,29,18.90
2015,06,28,02,30,18.80
2015,06,28,02,31,18.80
2015,06,28,02,32,18.80
2015,06,28,02,33,18.80
2015,06,28,02,34,18.80
2015,06,28,02,35,18.70
2015,06,28,02,36,18.70
2015,06,28,02,37,18.70
2015,06,28,02,38,18.70
2015,06,28,02,39,18.60
2015,06,28,02,40,18.60
2015,06,28,02,41,18.60
2015,06,28,02,42,18.70
2015,06,28,02,43,18.70
2015,06,28,02,44,18.70
2015,06,28,02,45,18.70
2015,06,28,02,46,18.70
2015,06,28,02,47,18.60
2015,06,28,02,48,18.60
2015,06,28,02,49,18.60
2015,06,28,02,50,18.60
2015,06,28,02,51,18.60
2015,06,28,02,52,18.60
2015,06,28,02,53,18.50
2015,06,28,02,54,18.50
2015,06,28,02,55,18.40
2015,06,28,02,56,18.40
2015,06,28,02,57,18.40
2015,06,28,02,58,18.40
2015,06,28,02,59,18.40
2015,06,28,03,00,18.30
2015,06,28,03,01,18.30
2015,06,28,03,02,18.30
2015,06,28,03,03,18.30
2015,06,28,03,04,18.30
2015,06,28,03,05,18.30
2015,06,28,03,06,18.30
2015,06,28,03,07,18.30
2015,06,28,03,08,18.20
2015,06,28,03,09,18.20
2015,06,28,03,10,18.20
2015,06,28,03,11,18.20
2015,06,28,03,12,18.20
2015,06,28,03,13,18.20
2015,06,28,03,14,18.20
2015,06,28,03,15,18.20
2015,06,28,03,16,18.10
2015,06,28,03,17,18.10
2015,06,28,03,18,18.10
2015,06,28,03,19,18.10
2015,06,28,03,20,18.10
2015,06,28,03,21,18.00
2015,06,28,03,22,17.90
2015,06,28,03,23,17.90
2015,06,28,03,24,17.90
2015,06,28,03,25,17.80
2015,06,28,03,26,17.80
2015,06,28,03,27,17.80
2015,06,28,03,28,17.70
2015,06,28,03,29,17.70
2015,06,28,03,30,17.70
2015,06,28,03,31,17.60
2015,06,28,03,32,17.60
2015,06,28,03,33,17.60
2015,06,28,03,34,17.50
2015,06,28,03,35,17.50
2015,06,28,03,36,17.40
2015,06,28,03,37,17.40
2015,06,28,03,38,17.30
2015,06,28,03,39,17.30
2015,06,28,03,40,17.30
2015,06,28,03,41,17.30
2015,06,28,03,42,17.30
2015,06,28,03,43,17.20
2015,06,28,03,44,17.20
2015,06,28,03,45,17.20
2015,06,28,03,46,17.20
2015,06,28,03,47,17.20
2015,06,28,03,48,17.20
2015,06,28,03,49,17.10
2015,06,28,03,50,17.10
2015,06,28,03,51,17.10
2015,06,28,03,52,17.10
2015,06,28,03,53,17.00
2015,06,28,03,54,17.00
2015,06,28,03,55,16.90
2015,06,28,03,56,16.90
2015,06,28,03,57,16.90
2015,06,28,03,58,16.80
2015,06,28,03,59,16.80
2015,06,28,04,00,16.80
2015,06,28,04,01,16.80
2015,06,28,04,02,16.70
2015,06,28,04,03,16.70
2015,06,28,04,04,16.70
2015,06,28,04,05,16.70
2015,06,28,04,06,16.70
2015,06,28,04,07,16.70
2015,06,28,04,08,16.80
2015,06,28,04,09,16.80
2015,06,28,04,10,16.80
2015,06,28,04,11,16.80
2015,06,28,04,12,16.90
2015,06,28,04,13,16.90
2015,06,28,04,14,16.90
2015,06,28,04,15,16.80
2015,06,28,04,16,16.80
2015,06,28,04,17,16.80
2015,06,28,04,18,16.80
2015,06,28,04,19,16.80
2015,06,28,04,20,16.80
2015,06,28,04,21,16.80
2015,06,28,04,22,16.80
2015,06,28,04,23,16.80
2015,06,28,04,24,16.80
2015,06,28,04,25,16.80
2015,06,28,04,26,16.80
2015,06,28,04,27,16.80
2015,06,28,04,28,16.80
2015,06,28,04,29,16.80
2015,06,28,04,30,16.80
2015,06,28,04,31,16.80
2015,06,28,04,32,16.70
2015,06,28,04,33,16.70
2015,06,28,04,34,16.70
2015,06,28,04,35,16.70
2015,06,28,04,36,16.60
2015,06,28,04,37,16.60
2015,06,28,04,38,16.60
2015,06,28,04,39,16.50
2015,06,28,04,40,16.50
2015,06,28,04,41,16.40
2015,06,28,04,42,16.40
2015,06,28,04,43,16.40
2015,06,28,04,44,16.40
2015,06,28,04,45,16.40
2015,06,28,04,46,16.40
2015,06,28,04,47,16.40
2015,06,28,04,48,16.40
2015,06,28,04,49,16.40
2015,06,28,04,50,16.40
2015,06,28,04,51,16.30
2015,06,28,04,52,16.30
2015,06,28,04,53,16.30
2015,06,28,04,54,16.30
2015,06,28,04,55,16.30
2015,06,28,04,56,16.30
2015,06,28,04,57,16.30
2015,06,28,04,58,16.30
2015,06,28,04,59,16.30
2015,06,28,05,00,16.20
2015,06,28,05,01,16.20
2015,06,28,05,02,16.20
2015,06,28,05,03,16.20
2015,06,28,05,04,16.20
2015,06,28,05,05,16.20
2015,06,28,05,06,16.20
2015,06,28,05,07,16.10
2015,06,28,05,08,16.10
2015,06,28,05,09,16.10
2015,06,28,05,10,16.10
2015,06,28,05,11,16.10
2015,06,28,05,12,16.00
2015,06,28,05,13,16.00
2015,06,28,05,14,16.00
2015,06,28,05,15,15.90
2015,06,28,05,16,15.90
2015,06,28,05,17,15.90
2015,06,28,05,18,15.90
2015,06,28,05,19,15.80
2015,06,28,05,20,15.80
2015,06,28,05,21,15.80
2015,06,28,05,22,15.80
2015,06,28,05,23,15.80
2015,06,28,05,24,15.80
2015,06,28,05,25,15.80
2015,06,28,05,26,15.80
2015,06,28,05,27,15.80
2015,06,28,05,28,15.80
2015,06,28,05,29,15.80
2015,06,28,05,30,15.80
2015,06,28,05,31,15.80
2015,06,28,05,32,15.90
2015,06,28,05,33,15.90
2015,06,28,05,34,15.90
2015,06,28,05,35,16.00
2015,06,28,05,36,16.00
2015,06,28,05,37,16.00
2015,06,28,05,38,16.00
2015,06,28,05,39,16.00
2015,06,28,05,40,16.00
2015,06,28,05,41,16.00
2015,06,28,05,42,16.00
2015,06,28,05,43,16.00
2015,06,28,05,44,16.00
2015,06,28,05,45,16.00
2015,06,28,05,46,16.00
2015,06,28,05,47,16.00
2015,06,28,05,48,16.00
2015,06,28,05,49,16.00
2015,06,28,05,50,16.00
2015,06,28,05,51,16.00
2015,06,28,05,52,16.00
2015,06,28,05,53,16.00
2015,06,28,05,54,16.00
2015,06,28,05,55,16.00
2015,06,28,05,56,16.00
2015,06,28,05,57,16.00
2015,06,28,05,58,16.00
2015,06,28,05,59,16.00
2015,06,28,06,00,16.00
2015,06,28,06,01,16.00
2015,06,28,06,02,16.00
2015,06,28,06,03,16.00
2015,06,28,06,04,15.90
2015,06,28,06,05,15.90
2015,06,28,06,06,15.90
2015,06,28,06,07,15.90
2015,06,28,06,08,15.90
2015,06,28,06,09,15.90
2015,06,28,06,10,15.90
2015,06,28,06,11,15.90
2015,06,28,06,12,15.90
2015,06,28,06,13,15.90
2015,06,28,06,14,15.90
2015,06,28,06,15,15.90
2015,06,28,06,16,15.90
2015,06,28,06,17,15.90
2015,06,28,06,18,15.90
2015,06,28,06,19,15.90
2015,06,28,06,20,15.90
2015,06,28,06,21,16.00
2015,06,28,06,22,16.00
2015,06,28,06,23,16.00
2015,06,28,06,24,16.00
2015,06,28,06,25,16.10
2015,06,28,06,26,16.10
2015,06,28,06,27,16.10
2015,06,28,06,28,16.20
2015,06,28,06,29,16.20
2015,06,28,06,30,16.20
2015,06,28,06,31,16.20
2015,06,28,06,32,16.20
2015,06,28,06,33,16.20
2015,06,28,06,34,16.20
2015,06,28,06,35,16.20
2015,06,28,06,36,16.50
2015,06,28,06,37,16.70
2015,06,28,06,38,16.70
2015,06,28,06,39,16.80
2015,06,28,06,40,16.80
2015,06,28,06,41,16.90
2015,06,28,06,42,17.00
2015,06,28,06,43,17.00
2015,06,28,06,44,17.10
2015,06,28,06,45,17.20
2015,06,28,06,46,17.30
2015,06,28,06,47,17.40
2015,06,28,06,48,17.50
2015,06,28,06,49,17.60
2015,06,28,06,50,17.70
2015,06,28,06,51,17.90
2015,06,28,06,52,18.00
2015,06,28,06,53,18.10
2015,06,28,06,54,18.20
2015,06,28,06,55,18.30
2015,06,28,06,56,18.50
2015,06,28,06,57,18.60
2015,06,28,06,58,18.70
2015,06,28,06,59,18.70
2015,06,28,07,00,18.80
2015,06,28,07,01,18.80
2015,06,28,07,02,18.90
2015,06,28,07,03,18.90
2015,06,28,07,04,18.90
2015,06,28,07,05,18.80
2015,06,28,07,06,18.80
2015,06,28,07,07,18.80
2015,06,28,07,08,18.80
2015,06,28,07,09,18.80
2015,06,28,07,10,18.80
2015,06,28,07,11,18.80
2015,06,28,07,12,18.80
2015,06,28,07,13,18.80
2015,06,28,07,14,18.80
2015,06,28,07,15,18.80
2015,06,28,07,16,18.80
2015,06,28,07,17,18.80
2015,06,28,07,18,18.90
2015,06,28,07,19,18.90
2015,06,28,07,20,18.90
2015,06,28,07,21,18.90
2015,06,28,07,22,19.00
2015,06,28,07,23,19.00
2015,06,28,07,24,19.10
2015,06,28,07,25,19.10
2015,06,28,07,26,19.20
2015,06,28,07,27,19.30
2015,06,28,07,28,19.30
2015,06,28,07,29,19.40
2015,06,28,07,30,19.50
2015,06,28,07,31,19.60
2015,06,28,07,32,19.70
2015,06,28,07,33,19.80
2015,06,28,07,34,19.90
2015,06,28,07,35,20.00
2015,06,28,07,36,20.20
2015,06,28,07,37,20.30
2015,06,28,07,38,20.40
2015,06,28,07,39,20.50
2015,06,28,07,40,20.60
2015,06,28,07,41,20.60
2015,06,28,07,42,20.70
2015,06,28,07,43,20.70
2015,06,28,07,44,20.70
2015,06,28,07,45,20.80
2015,06,28,07,46,20.80
2015,06,28,07,47,20.90
2015,06,28,07,48,20.90
2015,06,28,07,49,21.00
2015,06,28,07,50,21.00
2015,06,28,07,51,21.10
2015,06,28,07,52,21.10
2015,06,28,07,53,21.10
2015,06,28,07,54,21.10
2015,06,28,07,55,21.20
2015,06,28,07,56,21.20
2015,06,28,07,57,21.30
2015,06,28,07,58,21.30
2015,06,28,07,59,21.40
2015,06,28,08,00,21.40
2015,06,28,08,01,21.50
2015,06,28,08,02,21.60
2015,06,28,08,03,21.60
2015,06,28,08,04,21.60
2015,06,28,08,05,21.70
2015,06,28,08,06,21.80
2015,06,28,08,07,21.90
2015,06,28,08,08,22.00
2015,06,28,08,09,22.10
2015,06,28,08,10,22.30
2015,06,28,08,11,22.40
2015,06,28,08,12,22.50
2015,06,28,08,13,22.60
2015,06,28,08,14,22.70
2015,06,28,08,15,22.80
2015,06,28,08,16,22.80
2015,06,28,08,17,22.90
2015,06,28,08,18,22.90
2015,06,28,08,19,22.90
2015,06,28,08,20,22.90
2015,06,28,08,21,22.80
2015,06,28,08,22,22.80
2015,06,28,08,23,22.80
2015,06,28,08,24,22.90
2015,06,28,08,25,22.90
2015,06,28,08,26,23.00
2015,06,28,08,27,23.10
2015,06,28,08,28,23.20
2015,06,28,08,29,23.20
2015,06,28,08,30,23.30
2015,06,28,08,31,23.40
2015,06,28,08,32,23.50
2015,06,28,08,33,23.60
2015,06,28,08,34,23.70
2015,06,28,08,35,23.80
2015,06,28,08,36,23.80
2015,06,28,08,37,23.80
2015,06,28,08,38,23.90
2015,06,28,08,39,23.90
2015,06,28,08,40,24.00
2015,06,28,08,41,24.00
2015,06,28,08,42,24.10
2015,06,28,08,43,24.10
2015,06,28,08,44,24.20
2015,06,28,08,45,24.30
2015,06,28,08,46,24.40
2015,06,28,08,47,24.50
2015,06,28,08,48,24.60
2015,06,28,08,49,24.80
2015,06,28,08,50,24.90
2015,06,28,08,51,25.00
2015,06,28,08,52,25.10
2015,06,28,08,53,25.10
2015,06,28,08,54,25.10
2015,06,28,08,55,25.10
2015,06,28,08,56,25.20
2015,06,28,08,57,25.20
2015,06,28,08,58,25.20
2015,06,28,08,59,25.20
2015,06,28,09,00,25.30
2015,06,28,09,01,25.40
2015,06,28,09,02,25.50
2015,06,28,09,03,25.60
2015,06,28,09,04,25.60
2015,06,28,09,05,25.70
2015,06,28,09,06,25.80
2015,06,28,09,07,25.80
2015,06,28,09,08,25.80
2015,06,28,09,09,25.80
2015,06,28,09,10,25.90
2015,06,28,09,11,26.00
2015,06,28,09,12,26.00
2015,06,28,09,13,26.10
2015,06,28,09,14,26.20
2015,06,28,09,15,26.30
2015,06,28,09,16,26.30
2015,06,28,09,17,26.40
2015,06,28,09,18,26.50
2015,06,28,09,19,26.60
2015,06,28,09,20,26.60
2015,06,28,09,21,26.60
2015,06,28,09,22,26.70
2015,06,28,09,23,26.70
2015,06,28,09,24,26.70
2015,06,28,09,25,26.70
2015,06,28,09,26,26.70
2015,06,28,09,27,26.80
2015,06,28,09,28,26.90
2015,06,28,09,29,27.00
2015,06,28,09,30,27.00
2015,06,28,09,31,27.00
2015,06,28,09,32,27.00
2015,06,28,09,33,27.00
2015,06,28,09,34,27.10
2015,06,28,09,35,27.10
2015,06,28,09,36,27.10
2015,06,28,09,37,27.10
2015,06,28,09,38,27.10
2015,06,28,09,39,27.10
2015,06,28,09,40,27.10
2015,06,28,09,41,27.00
2015,06,28,09,42,27.00
2015,06,28,09,43,27.00
2015,06,28,09,44,27.00
2015,06,28,09,45,27.10
2015,06,28,09,46,27.10
2015,06,28,09,47,27.20
2015,06,28,09,48,27.20
2015,06,28,09,49,27.20
2015,06,28,09,50,27.20
2015,06,28,09,51,27.20
2015,06,28,09,52,27.20
2015,06,28,09,53,27.30
2015,06,28,09,54,27.30
2015,06,28,09,55,27.30
2015,06,28,09,56,27.30
2015,06,28,09,57,27.30
2015,06,28,09,58,27.40
2015,06,28,09,59,27.40
2015,06,28,10,00,27.40
2015,06,28,10,01,27.40
2015,06,28,10,02,27.40
2015,06,28,10,03,27.40
2015,06,28,10,04,27.50
2015,06,28,10,05,27.50
2015,06,28,10,06,27.60
2015,06,28,10,07,27.60
2015,06,28,10,08,27.70
2015,06,28,10,09,27.80
2015,06,28,10,10,27.90
2015,06,28,10,11,28.00
2015,06,28,10,12,28.00
2015,06,28,10,13,28.10
2015,06,28,10,14,28.20
2015,06,28,10,15,28.30
2015,06,28,10,16,28.40
2015,06,28,10,17,28.60
2015,06,28,10,18,28.80
2015,06,28,10,19,28.90
2015,06,28,10,20,29.00
2015,06,28,10,21,29.10
2015,06,28,10,22,29.20
2015,06,28,10,23,29.20
2015,06,28,10,24,29.30
2015,06,28,10,25,29.30
2015,06,28,10,26,29.40
2015,06,28,10,27,29.40
2015,06,28,10,28,29.40
2015,06,28,10,29,29.40
2015,06,28,10,30,29.40
2015,06,28,10,31,29.40
2015,06,28,10,32,29.50
2015,06,28,10,33,29.50
2015,06,28,10,34,29.60
2015,06,28,10,35,29.60
2015,06,28,10,36,29.70
2015,06,28,10,37,29.70
2015,06,28,10,38,29.70
2015,06,28,10,39,29.70
2015,06,28,10,40,29.70
2015,06,28,10,41,29.70
2015,06,28,10,42,29.70
2015,06,28,10,43,29.80
2015,06,28,10,44,29.80
2015,06,28,10,45,29.90
2015,06,28,10,46,29.90
2015,06,28,10,47,30.00
2015,06,28,10,48,30.10
2015,06,28,10,49,30.20
2015,06,28,10,50,30.30
2015,06,28,10,51,30.40
2015,06,28,10,52,30.50
2015,06,28,10,53,30.60
2015,06,28,10,54,30.60
2015,06,28,10,55,30.60
2015,06,28,10,56,30.60
2015,06,28,10,57,30.70
2015,06,28,10,58,30.80
2015,06,28,10,59,30.80
2015,06,28,11,00,30.80
2015,06,28,11,01,30.90
2015,06,28,11,02,31.00
2015,06,28,11,03,31.20
2015,06,28,11,04,31.30
2015,06,28,11,05,31.40
2015,06,28,11,06,31.40
2015,06,28,11,07,31.50
2015,06,28,11,08,31.50
2015,06,28,11,09,31.60
2015,06,28,11,10,31.60
2015,06,28,11,11,31.70
2015,06,28,11,12,31.80
2015,06,28,11,13,32.00
2015,06,28,11,14,32.00
2015,06,28,11,15,32.00
2015,06,28,11,16,32.10
2015,06,28,11,17,32.20
2015,06,28,11,18,32.20
2015,06,28,11,19,32.20
2015,06,28,11,20,32.20
2015,06,28,11,21,32.10
2015,06,28,11,22,32.10
2015,06,28,11,23,32.10
2015,06,28,11,24,32.10
2015,06,28,11,25,32.20
2015,06,28,11,26,32.20
2015,06,28,11,27,32.20
2015,06,28,11,28,32.20
2015,06,28,11,29,32.20
2015,06,28,11,30,32.20
2015,06,28,11,31,32.20
2015,06,28,11,32,32.20
2015,06,28,11,33,32.20
2015,06,28,11,34,32.30
2015,06,28,11,35,32.30
2015,06,28,11,36,32.30
2015,06,28,11,37,32.30
2015,06,28,11,38,32.30
2015,06,28,11,39,32.40
2015,06,28,11,40,32.50
2015,06,28,11,41,32.50
2015,06,28,11,42,32.50
2015,06,28,11,43,32.60
2015,06,28,11,44,32.60
2015,06,28,11,45,32.70
2015,06,28,11,46,32.80
2015,06,28,11,47,32.80
2015,06,28,11,48,32.90
2015,06,28,11,49,33.00
2015,06,28,11,50,33.10
2015,06,28,11,51,33.20
2015,06,28,11,52,33.30
2015,06,28,11,53,33.40
2015,06,28,11,54,33.50
2015,06,28,11,55,33.60
2015,06,28,11,56,33.60
2015,06,28,11,57,33.60
2015,06,28,11,58,33.60
2015,06,28,11,59,33.60
2015,06,28,12,00,33.60
2015,06,28,12,01,33.70
2015,06,28,12,02,33.70
2015,06,28,12,03,33.70
2015,06,28,12,04,33.70
2015,06,28,12,05,33.70
2015,06,28,12,06,33.70
2015,06,28,12,07,33.70
2015,06,28,12,08,33.60
2015,06,28,12,09,33.60
2015,06,28,12,10,33.60
2015,06,28,12,11,33.60
2015,06,28,12,12,33.60
2015,06,28,12,13,33.60
2015,06,28,12,14,33.50
2015,06,28,12,15,33.40
2015,06,28,12,16,33.40
2015,06,28,12,17,33.30
2015,06,28,12,18,33.30
2015,06,28,12,19,33.30
2015,06,28,12,20,33.20
2015,06,28,12,21,33.20
2015,06,28,12,22,33.20
2015,06,28,12,23,33.20
2015,06,28,12,24,33.30
2015,06,28,12,25,33.30
2015,06,28,12,26,33.40
2015,06,28,12,27,33.40
2015,06,28,12,28,33.40
2015,06,28,12,29,33.40
2015,06,28,12,30,33.40
2015,06,28,12,31,33.50
2015,06,28,12,32,33.60
2015,06,28,12,33,33.60
2015,06,28,12,34,33.60
2015,06,28,12,35,33.70
2015,06,28,12,36,33.80
2015,06,28,12,37,33.90
2015,06,28,12,38,34.10
2015,06,28,12,39,34.20
2015,06,28,12,40,34.30
2015,06,28,12,41,34.30
2015,06,28,12,42,34.30
2015,06,28,12,43,34.30
2015,06,28,12,44,34.20
2015,06,28,12,45,34.20
2015,06,28,12,46,34.10
2015,06,28,12,47,34.00
2015,06,28,12,48,33.80
2015,06,28,12,49,33.70
2015,06,28,12,50,33.60
2015,06,28,12,51,33.60
2015,06,28,12,52,33.50
2015,06,28,12,53,33.40
2015,06,28,12,54,33.40
2015,06,28,12,55,33.40
2015,06,28,12,56,33.40
2015,06,28,12,57,33.30
2015,06,28,12,58,33.30
2015,06,28,12,59,33.20
2015,06,28,13,00,33.10
2015,06,28,13,01,33.00
2015,06,28,13,02,33.00
2015,06,28,13,03,32.90
2015,06,28,13,04,32.80
2015,06,28,13,05,32.80
2015,06,28,13,06,32.70
2015,06,28,13,07,32.60
2015,06,28,13,08,32.60
2015,06,28,13,09,32.50
2015,06,28,13,10,32.50
2015,06,28,13,11,32.40
2015,06,28,13,12,32.30
2015,06,28,13,13,32.30
2015,06,28,13,14,32.30
2015,06,28,13,15,32.20
2015,06,28,13,16,32.10
2015,06,28,13,17,32.10
2015,06,28,13,18,32.00
2015,06,28,13,19,31.90
2015,06,28,13,20,31.80
2015,06,28,13,21,31.70
2015,06,28,13,22,31.50
2015,06,28,13,23,31.40
2015,06,28,13,24,31.40
2015,06,28,13,25,31.30
2015,06,28,13,26,31.30
2015,06,28,13,27,31.30
2015,06,28,13,28,31.30
2015,06,28,13,29,31.30
2015,06,28,13,30,31.30
2015,06,28,13,31,31.30
2015,06,28,13,32,31.30
2015,06,28,13,33,31.30
2015,06,28,13,34,31.30
2015,06,28,13,35,31.30
2015,06,28,13,36,31.30
2015,06,28,13,37,31.30
2015,06,28,13,38,31.30
2015,06,28,13,39,31.30
2015,06,28,13,40,31.30
2015,06,28,13,41,31.30
2015,06,28,13,42,31.30
2015,06,28,13,43,31.20
2015,06,28,13,44,31.30
2015,06,28,13,45,31.30
2015,06,28,13,46,31.30
2015,06,28,13,47,31.30
2015,06,28,13,48,31.30
2015,06,28,13,49,31.30
2015,06,28,13,50,31.30
2015,06,28,13,51,31.20
2015,06,28,13,52,31.20
2015,06,28,13,53,31.30
2015,06,28,13,54,31.30
2015,06,28,13,55,31.20
2015,06,28,13,56,31.20
2015,06,28,13,57,31.10
2015,06,28,13,58,31.10
2015,06,28,13,59,31.00
2015,06,28,14,00,31.00
2015,06,28,14,01,31.00
2015,06,28,14,02,30.90
2015,06,28,14,03,30.90
2015,06,28,14,04,30.90
2015,06,28,14,05,30.80
2015,06,28,14,06,30.80
2015,06,28,14,07,30.70
2015,06,28,14,08,30.70
2015,06,28,14,09,30.80
2015,06,28,14,10,30.80
2015,06,28,14,11,30.80
2015,06,28,14,12,30.90
2015,06,28,14,13,30.90
2015,06,28,14,14,30.90
2015,06,28,14,15,30.90
2015,06,28,14,16,30.90
2015,06,28,14,17,30.90
2015,06,28,14,18,30.90
2015,06,28,14,19,30.90
2015,06,28,14,20,30.90
2015,06,28,14,21,30.90
2015,06,28,14,22,30.90
2015,06,28,14,23,30.90
2015,06,28,14,24,30.90
2015,06,28,14,25,30.90
2015,06,28,14,26,30.80
2015,06,28,14,27,30.70
2015,06,28,14,28,30.70
2015,06,28,14,29,30.80
2015,06,28,14,30,30.80
2015,06,28,14,31,30.80
2015,06,28,14,32,30.80
2015,06,28,14,33,30.70
2015,06,28,14,34,30.70
2015,06,28,14,35,30.70
2015,06,28,14,36,30.70
2015,06,28,14,37,30.70
2015,06,28,14,38,30.60
2015,06,28,14,39,30.60
2015,06,28,14,40,30.70
2015,06,28,14,41,30.70
2015,06,28,14,42,30.70
2015,06,28,14,43,30.70
2015,06,28,14,44,30.80
2015,06,28,14,45,30.80
2015,06,28,14,46,30.80
2015,06,28,14,47,30.70
2015,06,28,14,48,30.70
2015,06,28,14,49,30.70
2015,06,28,14,50,30.80
2015,06,28,14,51,30.80
2015,06,28,14,52,30.90
2015,06,28,14,53,31.00
2015,06,28,14,54,31.00
2015,06,28,14,55,31.00
2015,06,28,14,56,31.00
2015,06,28,14,57,31.00
2015,06,28,14,58,31.10
2015,06,28,14,59,31.10
2015,06,28,15,00,31.10
2015,06,28,15,01,31.10
2015,06,28,15,02,31.20
2015,06,28,15,03,31.20
2015,06,28,15,04,31.20
2015,06,28,15,05,31.20
2015,06,28,15,06,31.30
2015,06,28,15,07,31.30
2015,06,28,15,08,31.30
2015,06,28,15,09,31.30
2015,06,28,15,10,31.30
2015,06,28,15,11,31.30
2015,06,28,15,12,31.30
2015,06,28,15,13,31.20
2015,06,28,15,14,31.20
2015,06,28,15,15,31.20
2015,06,28,15,16,31.30
2015,06,28,15,17,31.30
2015,06,28,15,18,31.30
2015,06,28,15,19,31.30
2015,06,28,15,20,31.30
2015,06,28,15,21,31.20
2015,06,28,15,22,31.20
2015,06,28,15,23,31.30
2015,06,28,15,24,31.30
2015,06,28,15,25,31.30
2015,06,28,15,26,31.30
2015,06,28,15,27,31.30
2015,06,28,15,28,31.20
2015,06,28,15,29,31.20
2015,06,28,15,30,31.10
2015,06,28,15,31,31.10
2015,06,28,15,32,31.10
2015,06,28,15,33,31.00
2015,06,28,15,34,30.90
2015,06,28,15,35,30.90
2015,06,28,15,36,30.90
2015,06,28,15,37,30.90
2015,06,28,15,38,30.90
2015,06,28,15,39,30.80
2015,06,28,15,40,30.80
2015,06,28,15,41,30.80
2015,06,28,15,42,30.70
2015,06,28,15,43,30.70
2015,06,28,15,44,30.70
2015,06,28,15,45,30.60
2015,06,28,15,46,30.60
2015,06,28,15,47,30.60
2015,06,28,15,48,30.60
2015,06,28,15,49,30.60
2015,06,28,15,50,30.60
2015,06,28,15,51,30.50
2015,06,28,15,52,30.40
2015,06,28,15,53,30.40
2015,06,28,15,54,30.40
2015,06,28,15,55,30.40
2015,06,28,15,56,30.40
2015,06,28,15,57,30.40
2015,06,28,15,58,30.40
2015,06,28,15,59,30.40
2015,06,28,16,00,30.50
2015,06,28,16,01,30.50
2015,06,28,16,02,30.50
2015,06,28,16,03,30.60
2015,06,28,16,04,30.60
2015,06,28,16,05,30.60
2015,06,28,16,06,30.60
2015,06,28,16,07,30.60
2015,06,28,16,08,30.60
2015,06,28,16,09,30.70
2015,06,28,16,10,30.70
2015,06,28,16,11,30.70
2015,06,28,16,12,30.70
2015,06,28,16,13,30.70
2015,06,28,16,14,30.70
2015,06,28,16,15,30.70
2015,06,28,16,16,30.70
2015,06,28,16,17,30.70
2015,06,28,16,18,30.80
2015,06,28,16,19,30.80
2015,06,28,16,20,30.90
2015,06,28,16,21,30.90
2015,06,28,16,22,30.90
2015,06,28,16,23,30.90
2015,06,28,16,24,30.90
2015,06,28,16,25,30.80
2015,06,28,16,26,30.70
2015,06,28,16,27,30.70
2015,06,28,16,28,30.60
2015,06,28,16,29,30.60
2015,06,28,16,30,30.50
2015,06,28,16,31,30.40
2015,06,28,16,32,30.30
2015,06,28,16,33,30.20
2015,06,28,16,34,30.10
2015,06,28,16,35,30.10
2015,06,28,16,36,30.10
2015,06,28,16,37,30.00
2015,06,28,16,38,30.00
2015,06,28,16,39,29.90
2015,06,28,16,40,29.90
2015,06,28,16,41,29.90
2015,06,28,16,42,29.90
2015,06,28,16,43,29.90
2015,06,28,16,44,29.80
2015,06,28,16,45,29.80
2015,06,28,16,46,29.70
2015,06,28,16,47,29.70
2015,06,28,16,48,29.60
2015,06,28,16,49,29.60
2015,06,28,16,50,29.50
2015,06,28,16,51,29.40
2015,06,28,16,52,29.40
2015,06,28,16,53,29.40
2015,06,28,16,54,29.40
2015,06,28,16,55,29.40
2015,06,28,16,56,29.30
2015,06,28,16,57,29.30
2015,06,28,16,58,29.30
2015,06,28,16,59,29.30
2015,06,28,17,00,29.30
2015,06,28,17,01,29.30
2015,06,28,17,02,29.30
2015,06,28,17,03,29.30
2015,06,28,17,04,29.30
2015,06,28,17,05,29.40
2015,06,28,17,06,29.40
2015,06,28,17,07,29.40
2015,06,28,17,08,29.40
2015,06,28,17,09,29.40
2015,06,28,17,10,29.50
2015,06,28,17,11,29.50
2015,06,28,17,12,29.60
2015,06,28,17,13,29.60
2015,06,28,17,14,29.60
2015,06,28,17,15,29.70
2015,06,28,17,16,29.70
2015,06,28,17,17,29.70
2015,06,28,17,18,29.70
2015,06,28,17,19,29.70